Time,TemperatureF,DewpointF,PressureIn,WindDirection,WindDirectionDegrees,WindSpeedMPH,WindSpeedGustMPH,Humidity,HourlyPrecipIn,Conditions,Clouds,dailyrainin,SoftwareType,DateUTC
2013-09-07 00:02:00,68.4,57.4,29.81,NW,313,0.0,0.0,68,0.00,,,0.00,WeatherCatV1.21B27,2013-09-07 07:02:00,
2013-09-07 00:07:00,68.3,57.3,29.81,NW,313,0.0,0.0,68,0.00,,,0.00,WeatherCatV1.21B27,2013-09-07 07:07:00,
2013-09-07 00:12:00,68.1,57.1,29.81,NW,313,0.0,0.0,68,0.00,,,0.00,WeatherCatV1.21B27,2013-09-07 07:12:00,
2013-09-07 00:17:00,68.0,57.0,29.81,NW,313,0.0,0.0,68,0.00,,,0.00,WeatherCatV1.21B27,2013-09-07 07:17:00,
2013-09-07 00:22:00,67.8,56.4,29.81,NW,313,0.0,0.0,67,0.00,,,0.00,WeatherCatV1.21B27,2013-09-07 07:22:00,
2013-09-07 00:27:00,67.7,57.5,29.81,NW,313,0.0,0.0,70,0.00,,,0.00,WeatherCatV1.21B27,2013-09-07 07:27:00,
2013-09-07 00:32:00,67.6,57.8,29.80,NW,313,0.0,0.0,71,0.00,,,0.00,WeatherCatV1.21B27,2013-09-07 07:32:00,
2013-09-07 00:37:00,67.4,57.3,29.81,NW,313,0.0,0.0,70,0.00,,,0.00,WeatherCatV1.21B27,2013-09-07 07:37:00,
2013-09-07 00:42:00,67.2,57.1,29.80,NW,313,0.0,0.0,70,0.00,,,0.00,WeatherCatV1.21B27,2013-09-07 07:42:00,
2013-09-07 00:47:00,67.0,56.9,29.80,NW,313,0.0,0.0,70,0.00,,,0.00,WeatherCatV1.21B27,2013-09-07 07:47:00,
2013-09-07 00:52:00,66.8,57.1,29.81,NW,313,0.0,0.0,71,0.00,,,0.00,WeatherCatV1.21B27,2013-09-07 07:52:00,
2013-09-07 00:57:00,66.6,57.7,29.81,NW,313,0.0,0.0,73,0.00,,,0.00,WeatherCatV1.21B27,2013-09-07 07:57:00,
2013-09-07 01:02:00,66.4,57.8,29.81,NW,313,0.0,0.0,74,0.00,,,0.00,WeatherCatV1.21B27,2013-09-07 08:02:00,
2013-09-07 01:07:00,66.3,57.8,29.81,NW,313,0.0,0.0,74,0.00,,,0.00,WeatherCatV1.21B27,2013-09-07 08:07:00,
2013-09-07 01:12:00,66.1,57.2,29.80,NW,313,0.0,0.0,73,0.00,,,0.00,WeatherCatV1.21B27,2013-09-07 08:12:00,
2013-09-07 01:17:00,65.9,57.4,29.80,NW,313,0.0,0.0,74,0.00,,,0.00,WeatherCatV1.21B27,2013-09-07 08:17:00,
2013-09-07 01:24:00,65.6,57.1,29.81,NW,313,0.0,0.0,74,0.00,,,0.00,WeatherCatV1.21B27,2013-09-07 08:24:00,
2013-09-07 01:29:00,65.4,56.9,29.81,NW,313,0.0,0.0,74,0.00,,,0.00,WeatherCatV1.21B27,2013-09-07 08:29:00,
2013-09-07 01:34:00,65.1,56.6,29.81,NW,313,0.0,0.0,74,0.00,,,0.00,WeatherCatV1.21B27,2013-09-07 08:34:00,
2013-09-07 01:39:00,64.9,56.4,29.81,NW,313,0.0,0.0,74,0.00,,,0.00,WeatherCatV1.21B27,2013-09-07 08:39:00,
2013-09-07 01:44:00,64.6,56.5,29.81,NW,313,0.0,0.0,75,0.00,,,0.00,WeatherCatV1.21B27,2013-09-07 08:44:00,
2013-09-07 01:49:00,64.4,56.3,29.81,NW,313,0.0,0.0,75,0.00,,,0.00,WeatherCatV1.21B27,2013-09-07 08:49:00,
2013-09-07 01:54:00,64.1,56.4,29.81,NW,313,0.0,0.0,76,0.00,,,0.00,WeatherCatV1.21B27,2013-09-07 08:54:00,
2013-09-07 01:59:00,63.9,56.5,29.81,NW,313,0.0,0.0,77,0.00,,,0.00,WeatherCatV1.21B27,2013-09-07 08:59:00,
2013-09-07 02:04:00,63.8,56.4,29.81,NW,313,0.0,0.0,77,0.00,,,0.00,WeatherCatV1.21B27,2013-09-07 09:04:00,
2013-09-07 02:09:00,63.6,56.6,29.80,NW,313,0.0,0.0,78,0.00,,,0.00,WeatherCatV1.21B27,2013-09-07 09:09:00,
2013-09-07 02:14:00,63.4,56.4,29.80,NW,313,0.0,0.0,78,0.00,,,0.00,WeatherCatV1.21B27,2013-09-07 09:14:00,
2013-09-07 02:19:00,63.3,57.0,29.80,NW,313,0.0,0.0,80,0.00,,,0.00,WeatherCatV1.21B27,2013-09-07 09:19:00,
2013-09-07 02:24:00,63.1,56.5,29.80,NW,313,0.0,0.0,79,0.00,,,0.00,WeatherCatV1.21B27,2013-09-07 09:24:00,
2013-09-07 02:29:00,62.9,56.3,29.80,NW,313,0.0,0.0,79,0.00,,,0.00,WeatherCatV1.21B27,2013-09-07 09:29:00,
2013-09-07 02:34:00,62.7,56.4,29.80,NW,313,0.0,0.0,80,0.00,,,0.00,WeatherCatV1.21B27,2013-09-07 09:34:00,
2013-09-07 02:39:00,62.6,56.7,29.80,NW,313,0.0,0.0,81,0.00,,,0.00,WeatherCatV1.21B27,2013-09-07 09:39:00,
2013-09-07 02:44:00,62.4,56.5,29.80,NW,313,0.0,0.0,81,0.00,,,0.00,WeatherCatV1.21B27,2013-09-07 09:44:00,
2013-09-07 02:49:00,62.2,56.3,29.80,NW,313,0.0,0.0,81,0.00,,,0.00,WeatherCatV1.21B27,2013-09-07 09:49:00,
2013-09-07 02:54:00,62.1,56.2,29.80,NW,313,0.0,0.0,81,0.00,,,0.00,WeatherCatV1.21B27,2013-09-07 09:54:00,
2013-09-07 02:59:00,61.9,56.0,29.80,NW,313,0.0,0.0,81,0.00,,,0.00,WeatherCatV1.21B27,2013-09-07 09:59:00,
2013-09-07 03:04:00,61.7,55.8,29.80,NW,313,0.0,0.0,81,0.00,,,0.00,WeatherCatV1.21B27,2013-09-07 10:04:00,
2013-09-07 03:09:00,61.6,56.0,29.80,NW,313,0.0,0.0,82,0.00,,,0.00,WeatherCatV1.21B27,2013-09-07 10:09:00,
2013-09-07 03:14:00,61.4,55.8,29.80,NW,313,0.0,0.0,82,0.00,,,0.00,WeatherCatV1.21B27,2013-09-07 10:14:00,
2013-09-07 03:19:00,61.3,55.8,29.79,NW,313,0.0,0.0,82,0.00,,,0.00,WeatherCatV1.21B27,2013-09-07 10:19:00,
2013-09-07 03:24:00,61.2,56.0,29.79,NW,313,0.0,0.0,83,0.00,,,0.00,WeatherCatV1.21B27,2013-09-07 10:24:00,
2013-09-07 03:29:00,61.2,56.7,29.79,NW,313,0.0,0.0,85,0.00,,,0.00,WeatherCatV1.21B27,2013-09-07 10:29:00,
2013-09-07 03:34:00,61.1,56.9,29.79,NW,313,0.0,0.0,86,0.00,,,0.00,WeatherCatV1.21B27,2013-09-07 10:34:00,
2013-09-07 03:39:00,61.0,56.5,29.79,NW,313,0.0,0.0,85,0.00,,,0.00,WeatherCatV1.21B27,2013-09-07 10:39:00,
2013-09-07 03:44:00,60.9,56.4,29.79,NW,313,0.0,0.0,85,0.00,,,0.00,WeatherCatV1.21B27,2013-09-07 10:44:00,
2013-09-07 03:49:00,60.7,56.2,29.79,NW,313,0.0,0.0,85,0.00,,,0.00,WeatherCatV1.21B27,2013-09-07 10:49:00,
2013-09-07 03:54:00,60.6,56.1,29.79,NW,313,0.0,0.0,85,0.00,,,0.00,WeatherCatV1.21B27,2013-09-07 10:54:00,
2013-09-07 03:59:00,60.5,56.3,29.79,NW,313,0.0,0.0,86,0.00,,,0.00,WeatherCatV1.21B27,2013-09-07 10:59:00,
2013-09-07 04:04:00,60.5,56.6,29.79,NW,313,0.0,0.0,87,0.00,,,0.00,WeatherCatV1.21B27,2013-09-07 11:04:00,
2013-09-07 04:09:00,60.5,56.6,29.79,NW,313,0.0,0.0,87,0.00,,,0.00,WeatherCatV1.21B27,2013-09-07 11:09:00,
2013-09-07 04:14:00,60.4,56.5,29.79,NW,313,0.0,0.0,87,0.00,,,0.00,WeatherCatV1.21B27,2013-09-07 11:14:00,
2013-09-07 04:19:00,60.3,56.4,29.79,NW,313,0.0,0.0,87,0.00,,,0.00,WeatherCatV1.21B27,2013-09-07 11:19:00,
2013-09-07 04:24:00,60.1,56.2,29.79,NW,313,0.0,0.0,87,0.00,,,0.00,WeatherCatV1.21B27,2013-09-07 11:24:00,
2013-09-07 04:29:00,60.0,56.1,29.79,NW,313,0.0,0.0,87,0.00,,,0.00,WeatherCatV1.21B27,2013-09-07 11:29:00,
2013-09-07 04:34:00,59.9,56.0,29.79,NW,313,0.0,0.0,87,0.00,,,0.00,WeatherCatV1.21B27,2013-09-07 11:34:00,
2013-09-07 04:39:00,59.8,55.9,29.79,NW,313,0.0,0.0,87,0.00,,,0.00,WeatherCatV1.21B27,2013-09-07 11:39:00,
2013-09-07 04:44:00,59.6,55.7,29.79,NW,313,0.0,0.0,87,0.00,,,0.00,WeatherCatV1.21B27,2013-09-07 11:44:00,
2013-09-07 04:49:00,59.6,56.0,29.79,NW,313,0.0,0.0,88,0.00,,,0.00,WeatherCatV1.21B27,2013-09-07 11:49:00,
2013-09-07 04:54:00,59.5,55.9,29.79,NW,313,0.0,0.0,88,0.00,,,0.00,WeatherCatV1.21B27,2013-09-07 11:54:00,
2013-09-07 04:59:00,59.4,55.8,29.79,NW,313,0.0,0.0,88,0.00,,,0.00,WeatherCatV1.21B27,2013-09-07 11:59:00,
2013-09-07 05:04:00,59.3,55.7,29.79,NW,313,0.0,0.0,88,0.00,,,0.00,WeatherCatV1.21B27,2013-09-07 12:04:00,
2013-09-07 05:09:00,59.2,55.6,29.79,NW,313,0.0,0.0,88,0.00,,,0.00,WeatherCatV1.21B27,2013-09-07 12:09:00,
2013-09-07 05:14:00,59.1,55.5,29.80,NW,313,0.0,0.0,88,0.00,,,0.00,WeatherCatV1.21B27,2013-09-07 12:14:00,
2013-09-07 05:19:00,59.0,55.5,29.79,NW,313,0.0,0.0,88,0.00,,,0.00,WeatherCatV1.21B27,2013-09-07 12:19:00,
2013-09-07 05:24:00,58.9,55.3,29.80,NW,313,0.0,0.0,88,0.00,,,0.00,WeatherCatV1.21B27,2013-09-07 12:24:00,
2013-09-07 05:29:00,58.8,55.2,29.80,NW,313,0.0,0.0,88,0.00,,,0.00,WeatherCatV1.21B27,2013-09-07 12:29:00,
2013-09-07 05:34:00,58.7,55.5,29.80,NW,313,0.0,0.0,89,0.00,,,0.00,WeatherCatV1.21B27,2013-09-07 12:34:00,
2013-09-07 05:39:00,58.8,55.6,29.80,NW,313,0.0,0.0,89,0.00,,,0.00,WeatherCatV1.21B27,2013-09-07 12:39:00,
2013-09-07 05:44:00,58.8,55.9,29.80,NW,313,0.0,0.0,90,0.00,,,0.00,WeatherCatV1.21B27,2013-09-07 12:44:00,
2013-09-07 05:49:00,58.8,55.9,29.80,NW,313,0.0,0.0,90,0.00,,,0.00,WeatherCatV1.21B27,2013-09-07 12:49:00,
2013-09-07 05:56:00,58.7,55.8,29.80,NW,313,0.0,0.0,90,0.00,,,0.00,WeatherCatV1.21B27,2013-09-07 12:56:00,
2013-09-07 06:01:00,58.6,55.7,29.80,NW,313,0.0,0.0,90,0.00,,,0.00,WeatherCatV1.21B27,2013-09-07 13:01:00,
2013-09-07 06:06:00,58.4,55.5,29.80,NW,313,0.0,0.0,90,0.00,,,0.00,WeatherCatV1.21B27,2013-09-07 13:06:00,
2013-09-07 06:11:00,58.3,55.4,29.80,NW,313,0.0,0.0,90,0.00,,,0.00,WeatherCatV1.21B27,2013-09-07 13:11:00,
2013-09-07 06:16:00,58.2,55.3,29.80,NW,313,0.0,0.0,90,0.00,,,0.00,WeatherCatV1.21B27,2013-09-07 13:16:00,
2013-09-07 06:21:00,58.1,54.9,29.81,NW,313,0.0,0.0,89,0.00,,,0.00,WeatherCatV1.21B27,2013-09-07 13:21:00,
2013-09-07 06:26:00,58.0,54.8,29.80,NW,313,0.0,0.0,89,0.00,,,0.00,WeatherCatV1.21B27,2013-09-07 13:26:00,
2013-09-07 06:33:00,57.8,54.6,29.81,NW,313,0.0,0.0,89,0.00,,,0.00,WeatherCatV1.21B27,2013-09-07 13:33:00,
2013-09-07 06:38:00,57.8,54.9,29.80,NW,313,0.0,0.0,90,0.00,,,0.00,WeatherCatV1.21B27,2013-09-07 13:38:00,
2013-09-07 06:43:00,57.7,54.8,29.81,NW,313,0.0,0.0,90,0.00,,,0.00,WeatherCatV1.21B27,2013-09-07 13:43:00,
2013-09-07 06:48:00,57.6,54.7,29.81,NW,313,0.0,0.0,90,0.00,,,0.00,WeatherCatV1.21B27,2013-09-07 13:48:00,
2013-09-07 06:53:00,57.5,54.6,29.81,NW,313,0.0,0.0,90,0.00,,,0.00,WeatherCatV1.21B27,2013-09-07 13:53:00,
2013-09-07 06:58:00,57.5,54.6,29.81,NW,313,0.0,0.0,90,0.00,,,0.00,WeatherCatV1.21B27,2013-09-07 13:58:00,
2013-09-07 07:03:00,57.6,55.0,29.82,NW,313,0.0,0.0,91,0.00,,,0.00,WeatherCatV1.21B27,2013-09-07 14:03:00,
2013-09-07 07:08:00,57.6,55.0,29.82,NW,313,0.0,0.0,91,0.00,,,0.00,WeatherCatV1.21B27,2013-09-07 14:08:00,
2013-09-07 07:13:00,57.7,55.1,29.82,NW,313,0.0,0.0,91,0.00,,,0.00,WeatherCatV1.21B27,2013-09-07 14:13:00,
2013-09-07 07:18:00,57.9,55.6,29.82,NW,313,0.0,0.0,92,0.00,,,0.00,WeatherCatV1.21B27,2013-09-07 14:18:00,
2013-09-07 07:23:00,58.4,56.4,29.82,NW,313,0.0,0.0,93,0.00,,,0.00,WeatherCatV1.21B27,2013-09-07 14:23:00,
2013-09-07 07:28:00,58.8,56.8,29.82,NW,313,0.0,0.0,93,0.00,,,0.00,WeatherCatV1.21B27,2013-09-07 14:28:00,
2013-09-07 07:33:00,59.1,57.1,29.82,NW,313,0.0,0.0,93,0.00,,,0.00,WeatherCatV1.21B27,2013-09-07 14:33:00,
2013-09-07 07:38:00,59.4,57.4,29.83,NW,313,0.0,0.0,93,0.00,,,0.00,WeatherCatV1.21B27,2013-09-07 14:38:00,
2013-09-07 07:43:00,59.7,58.0,29.83,NW,313,0.0,0.0,94,0.00,,,0.00,WeatherCatV1.21B27,2013-09-07 14:43:00,
2013-09-07 07:48:00,60.0,58.3,29.83,NW,313,0.0,0.0,94,0.00,,,0.00,WeatherCatV1.21B27,2013-09-07 14:48:00,
2013-09-07 07:53:00,60.5,58.8,29.83,NW,313,0.0,0.0,94,0.00,,,0.00,WeatherCatV1.21B27,2013-09-07 14:53:00,
2013-09-07 07:58:00,60.9,59.2,29.83,NW,313,0.0,0.0,94,0.00,,,0.00,WeatherCatV1.21B27,2013-09-07 14:58:00,
2013-09-07 08:03:00,61.2,59.5,29.83,NW,313,0.0,0.0,94,0.00,,,0.00,WeatherCatV1.21B27,2013-09-07 15:03:00,
2013-09-07 08:08:00,61.5,59.8,29.83,NW,313,0.0,0.0,94,0.00,,,0.00,WeatherCatV1.21B27,2013-09-07 15:08:00,
2013-09-07 08:13:00,62.0,60.0,29.83,NW,313,0.0,0.0,93,0.00,,,0.00,WeatherCatV1.21B27,2013-09-07 15:13:00,
2013-09-07 08:18:00,62.6,60.5,29.83,NW,313,0.0,0.0,93,0.00,,,0.00,WeatherCatV1.21B27,2013-09-07 15:18:00,
2013-09-07 08:23:00,63.3,61.2,29.83,NW,313,0.0,0.0,93,0.00,,,0.00,WeatherCatV1.21B27,2013-09-07 15:23:00,
2013-09-07 08:30:00,64.3,61.0,29.83,NW,313,0.0,0.0,89,0.00,,,0.00,WeatherCatV1.21B27,2013-09-07 15:30:00,
2013-09-07 08:35:00,65.3,61.3,29.83,NW,313,0.0,0.0,87,0.00,,,0.00,WeatherCatV1.21B27,2013-09-07 15:35:00,
2013-09-07 08:40:00,66.3,61.0,29.83,NW,313,0.0,0.0,83,0.00,,,0.00,WeatherCatV1.21B27,2013-09-07 15:40:00,
2013-09-07 08:45:00,67.5,61.1,29.83,NW,313,0.0,0.0,80,0.00,,,0.00,WeatherCatV1.21B27,2013-09-07 15:45:00,
2013-09-07 08:50:00,68.9,61.4,29.83,NW,313,0.0,0.0,77,0.00,,,0.00,WeatherCatV1.21B27,2013-09-07 15:50:00,
2013-09-07 08:55:00,70.3,61.6,29.83,NW,313,0.0,0.0,74,0.00,,,0.00,WeatherCatV1.21B27,2013-09-07 15:55:00,
2013-09-07 09:00:00,71.7,63.0,29.83,NW,313,0.0,0.0,74,0.00,,,0.00,WeatherCatV1.21B27,2013-09-07 16:00:00,
2013-09-07 09:05:00,72.8,61.6,29.83,NW,313,0.0,0.0,68,0.00,,,0.00,WeatherCatV1.21B27,2013-09-07 16:05:00,
2013-09-07 09:10:00,73.9,61.8,29.83,NW,313,0.0,0.0,66,0.00,,,0.00,WeatherCatV1.21B27,2013-09-07 16:10:00,
2013-09-07 09:15:00,75.1,62.1,29.84,NW,313,0.0,0.0,64,0.00,,,0.00,WeatherCatV1.21B27,2013-09-07 16:15:00,
2013-09-07 09:20:00,76.2,62.7,29.83,NW,313,0.0,0.0,63,0.00,,,0.00,WeatherCatV1.21B27,2013-09-07 16:20:00,
2013-09-07 09:25:00,77.1,60.7,29.84,NW,313,0.0,1.0,57,0.00,,,0.00,WeatherCatV1.21B27,2013-09-07 16:25:00,
2013-09-07 09:30:00,78.0,61.5,29.84,NW,313,0.0,0.0,57,0.00,,,0.00,WeatherCatV1.21B27,2013-09-07 16:30:00,
2013-09-07 09:35:00,78.9,61.8,29.83,NW,313,0.0,0.0,56,0.00,,,0.00,WeatherCatV1.21B27,2013-09-07 16:35:00,
2013-09-07 09:40:00,79.7,62.1,29.84,NW,313,0.0,0.0,55,0.00,,,0.00,WeatherCatV1.21B27,2013-09-07 16:40:00,
2013-09-07 09:45:00,80.6,61.9,29.83,NW,313,0.0,1.0,53,0.00,,,0.00,WeatherCatV1.21B27,2013-09-07 16:45:00,
2013-09-07 09:50:00,81.0,61.7,29.84,NW,313,0.0,0.0,52,0.00,,,0.00,WeatherCatV1.21B27,2013-09-07 16:50:00,
2013-09-07 09:55:00,81.6,62.2,29.84,NW,313,0.0,0.0,52,0.00,,,0.00,WeatherCatV1.21B27,2013-09-07 16:55:00,
2013-09-07 10:00:00,82.0,61.5,29.83,NW,313,0.0,0.0,50,0.00,,,0.00,WeatherCatV1.21B27,2013-09-07 17:00:00,
2013-09-07 10:05:00,82.7,63.8,29.84,NW,313,0.0,0.0,53,0.00,,,0.00,WeatherCatV1.21B27,2013-09-07 17:05:00,
2013-09-07 10:10:00,83.3,62.1,29.84,NW,313,0.0,2.0,49,0.00,,,0.00,WeatherCatV1.21B27,2013-09-07 17:10:00,
2013-09-07 10:15:00,83.5,61.7,29.84,NW,313,0.0,1.0,48,0.00,,,0.00,WeatherCatV1.21B27,2013-09-07 17:15:00,
2013-09-07 10:20:00,84.1,61.7,29.84,NW,313,0.0,1.0,47,0.00,,,0.00,WeatherCatV1.21B27,2013-09-07 17:20:00,
2013-09-07 10:25:00,84.7,63.4,29.84,NW,313,0.0,0.0,49,0.00,,,0.00,WeatherCatV1.21B27,2013-09-07 17:25:00,
2013-09-07 10:30:00,85.4,59.7,29.84,NW,313,0.0,1.0,42,0.00,,,0.00,WeatherCatV1.21B27,2013-09-07 17:30:00,
2013-09-07 10:35:00,85.6,61.2,29.84,NW,313,0.0,0.0,44,0.00,,,0.00,WeatherCatV1.21B27,2013-09-07 17:35:00,
2013-09-07 10:40:00,86.2,61.0,29.83,NW,313,0.0,1.0,43,0.00,,,0.00,WeatherCatV1.21B27,2013-09-07 17:40:00,
2013-09-07 10:45:00,86.5,60.0,29.83,NW,313,0.0,0.0,41,0.00,,,0.00,WeatherCatV1.21B27,2013-09-07 17:45:00,
2013-09-07 10:50:00,86.8,60.2,29.83,NW,313,0.0,1.0,41,0.00,,,0.00,WeatherCatV1.21B27,2013-09-07 17:50:00,
2013-09-07 10:55:00,87.1,63.8,29.83,NW,313,1.0,1.0,46,0.00,,,0.00,WeatherCatV1.21B27,2013-09-07 17:55:00,
2013-09-07 11:00:00,87.3,59.3,29.83,NW,313,0.0,0.0,39,0.00,,,0.00,WeatherCatV1.21B27,2013-09-07 18:00:00,
2013-09-07 11:05:00,87.7,59.6,29.83,NW,313,0.0,0.0,39,0.00,,,0.00,WeatherCatV1.21B27,2013-09-07 18:05:00,
2013-09-07 11:10:00,88.1,62.8,29.83,NW,313,0.0,1.0,43,0.00,,,0.00,WeatherCatV1.21B27,2013-09-07 18:10:00,
2013-09-07 11:15:00,88.2,62.8,29.83,NW,313,1.0,2.0,43,0.00,,,0.00,WeatherCatV1.21B27,2013-09-07 18:15:00,
2013-09-07 11:20:00,88.3,60.2,29.83,NW,313,0.0,1.0,39,0.00,,,0.00,WeatherCatV1.21B27,2013-09-07 18:20:00,
2013-09-07 11:25:00,88.5,61.0,29.82,NW,313,0.0,3.0,40,0.00,,,0.00,WeatherCatV1.21B27,2013-09-07 18:25:00,
2013-09-07 11:30:00,88.9,56.9,29.82,NW,313,0.0,0.0,34,0.00,,,0.00,WeatherCatV1.21B27,2013-09-07 18:30:00,
2013-09-07 11:35:00,89.5,58.2,29.82,NW,313,0.0,0.0,35,0.00,,,0.00,WeatherCatV1.21B27,2013-09-07 18:35:00,
2013-09-07 11:40:00,90.1,63.2,29.82,NW,313,0.0,1.0,41,0.00,,,0.00,WeatherCatV1.21B27,2013-09-07 18:40:00,
2013-09-07 11:45:00,90.6,62.9,29.82,NW,313,0.0,1.0,40,0.00,,,0.00,WeatherCatV1.21B27,2013-09-07 18:45:00,
2013-09-07 11:50:00,91.0,60.3,29.82,West,273,0.0,3.0,36,0.00,,,0.00,WeatherCatV1.21B27,2013-09-07 18:50:00,
2013-09-07 11:55:00,91.1,61.9,29.82,West,274,0.0,0.0,38,0.00,,,0.00,WeatherCatV1.21B27,2013-09-07 18:55:00,
2013-09-07 12:00:00,91.6,63.1,29.82,West,274,0.0,1.0,39,0.00,,,0.00,WeatherCatV1.21B27,2013-09-07 19:00:00,
2013-09-07 12:05:00,91.8,61.8,29.82,West,274,0.0,0.0,37,0.00,,,0.00,WeatherCatV1.21B27,2013-09-07 19:05:00,
2013-09-07 12:10:00,92.2,62.9,29.81,West,274,0.0,1.0,38,0.00,,,0.00,WeatherCatV1.21B27,2013-09-07 19:10:00,
2013-09-07 12:15:00,92.3,62.2,29.81,WNW,290,0.0,0.0,37,0.00,,,0.00,WeatherCatV1.21B27,2013-09-07 19:15:00,
2013-09-07 12:20:00,92.8,61.1,29.81,WNW,288,0.0,0.0,35,0.00,,,0.00,WeatherCatV1.21B27,2013-09-07 19:20:00,
2013-09-07 12:25:00,93.0,59.6,29.81,WNW,286,0.0,1.0,33,0.00,,,0.00,WeatherCatV1.21B27,2013-09-07 19:25:00,
2013-09-07 12:30:00,93.4,63.2,29.81,WNW,282,0.0,2.0,37,0.00,,,0.00,WeatherCatV1.21B27,2013-09-07 19:30:00,
2013-09-07 12:35:00,94.1,66.0,29.81,West,281,2.0,2.0,40,0.00,,,0.00,WeatherCatV1.21B27,2013-09-07 19:35:00,
2013-09-07 12:40:00,94.3,63.2,29.81,West,275,0.0,1.0,36,0.00,,,0.00,WeatherCatV1.21B27,2013-09-07 19:40:00,
2013-09-07 12:45:00,94.4,62.5,29.80,West,273,0.0,1.0,35,0.00,,,0.00,WeatherCatV1.21B27,2013-09-07 19:45:00,
2013-09-07 12:50:00,94.2,63.1,29.80,West,272,0.0,0.0,36,0.00,,,0.00,WeatherCatV1.21B27,2013-09-07 19:50:00,
2013-09-07 12:55:00,94.3,62.4,29.80,West,261,1.0,3.0,35,0.00,,,0.00,WeatherCatV1.21B27,2013-09-07 19:55:00,
2013-09-07 13:00:00,94.3,60.7,29.80,West,261,0.0,1.0,33,0.00,,,0.00,WeatherCatV1.21B27,2013-09-07 20:00:00,
2013-09-07 13:05:00,94.5,64.9,29.80,West,261,0.0,2.0,38,0.00,,,0.00,WeatherCatV1.21B27,2013-09-07 20:05:00,
2013-09-07 13:10:00,94.8,62.0,29.80,West,261,0.0,0.0,34,0.00,,,0.00,WeatherCatV1.21B27,2013-09-07 20:10:00,
2013-09-07 13:15:00,95.0,60.5,29.80,West,261,0.0,0.0,32,0.00,,,0.00,WeatherCatV1.21B27,2013-09-07 20:15:00,
2013-09-07 13:20:00,94.7,61.1,29.79,West,261,0.0,0.0,33,0.00,,,0.00,WeatherCatV1.21B27,2013-09-07 20:20:00,
2013-09-07 13:25:00,95.0,62.2,29.79,West,261,2.0,2.0,34,0.00,,,0.00,WeatherCatV1.21B27,2013-09-07 20:25:00,
2013-09-07 13:30:00,95.1,60.5,29.79,West,260,0.0,0.0,32,0.00,,,0.00,WeatherCatV1.21B27,2013-09-07 20:30:00,
2013-09-07 13:35:00,95.5,65.0,29.78,WSW,257,3.0,4.0,37,0.00,,,0.00,WeatherCatV1.21B27,2013-09-07 20:35:00,
2013-09-07 13:40:00,95.8,63.7,29.78,WSW,256,0.0,0.0,35,0.00,,,0.00,WeatherCatV1.21B27,2013-09-07 20:40:00,
2013-09-07 13:45:00,96.2,60.6,29.78,WSW,257,0.0,0.0,31,0.00,,,0.00,WeatherCatV1.21B27,2013-09-07 20:45:00,
2013-09-07 13:50:00,96.6,61.8,29.77,WSW,257,0.0,0.0,32,0.00,,,0.00,WeatherCatV1.21B27,2013-09-07 20:50:00,
2013-09-07 13:55:00,96.7,61.0,29.77,WSW,256,0.0,1.0,31,0.00,,,0.00,WeatherCatV1.21B27,2013-09-07 20:55:00,
2013-09-07 14:00:00,96.8,60.2,29.77,WSW,245,0.0,3.0,30,0.00,,,0.00,WeatherCatV1.21B27,2013-09-07 21:00:00,
2013-09-07 14:05:00,96.9,60.3,29.77,WSW,245,0.0,1.0,30,0.00,,,0.00,WeatherCatV1.21B27,2013-09-07 21:05:00,
2013-09-07 14:10:00,97.1,63.2,29.77,WSW,244,0.0,0.0,33,0.00,,,0.00,WeatherCatV1.21B27,2013-09-07 21:10:00,
2013-09-07 14:15:00,97.4,63.4,29.76,WSW,242,0.0,1.0,33,0.00,,,0.00,WeatherCatV1.21B27,2013-09-07 21:15:00,
2013-09-07 14:20:00,97.6,63.6,29.76,WSW,242,0.0,1.0,33,0.00,,,0.00,WeatherCatV1.21B27,2013-09-07 21:20:00,
2013-09-07 14:25:00,97.8,62.9,29.76,WSW,242,1.0,1.0,32,0.00,,,0.00,WeatherCatV1.21B27,2013-09-07 21:25:00,
2013-09-07 14:30:00,97.9,61.1,29.76,SW,228,2.0,4.0,30,0.00,,,0.00,WeatherCatV1.21B27,2013-09-07 21:30:00,
2013-09-07 14:35:00,97.8,61.0,29.76,SW,223,0.0,0.0,30,0.00,,,0.00,WeatherCatV1.21B27,2013-09-07 21:35:00,
2013-09-07 14:40:00,97.8,62.9,29.75,SW,223,0.0,1.0,32,0.00,,,0.00,WeatherCatV1.21B27,2013-09-07 21:40:00,
2013-09-07 14:45:00,97.3,61.5,29.75,SW,222,0.0,0.0,31,0.00,,,0.00,WeatherCatV1.21B27,2013-09-07 21:45:00,
2013-09-07 14:50:00,97.3,59.7,29.75,SW,221,0.0,0.0,29,0.00,,,0.00,WeatherCatV1.21B27,2013-09-07 21:50:00,
2013-09-07 14:55:00,98.1,64.0,29.75,SW,221,0.0,0.0,33,0.00,,,0.00,WeatherCatV1.21B27,2013-09-07 21:55:00,
2013-09-07 15:00:00,98.5,60.7,29.75,SW,221,0.0,3.0,29,0.00,,,0.00,WeatherCatV1.21B27,2013-09-07 22:00:00,
2013-09-07 15:05:00,98.7,66.2,29.75,SW,221,0.0,0.0,35,0.00,,,0.00,WeatherCatV1.21B27,2013-09-07 22:05:00,
2013-09-07 15:10:00,99.1,65.7,29.75,SW,221,0.0,0.0,34,0.00,,,0.00,WeatherCatV1.21B27,2013-09-07 22:10:00,
2013-09-07 15:15:00,99.3,61.4,29.75,SW,221,0.0,1.0,29,0.00,,,0.00,WeatherCatV1.21B27,2013-09-07 22:15:00,
2013-09-07 15:20:00,99.2,59.3,29.74,SW,222,1.0,1.0,27,0.00,,,0.00,WeatherCatV1.21B27,2013-09-07 22:20:00,
2013-09-07 15:25:00,99.2,63.2,29.74,SW,222,1.0,1.0,31,0.00,,,0.00,WeatherCatV1.21B27,2013-09-07 22:25:00,
2013-09-07 15:30:00,98.7,59.9,29.74,SW,222,0.0,1.0,28,0.00,,,0.00,WeatherCatV1.21B27,2013-09-07 22:30:00,
2013-09-07 15:35:00,98.4,61.6,29.74,SW,222,0.0,0.0,30,0.00,,,0.00,WeatherCatV1.21B27,2013-09-07 22:35:00,
2013-09-07 15:40:00,98.9,62.0,29.74,SW,222,0.0,0.0,30,0.00,,,0.00,WeatherCatV1.21B27,2013-09-07 22:40:00,
2013-09-07 15:45:00,98.8,58.9,29.73,SW,222,1.0,1.0,27,0.00,,,0.00,WeatherCatV1.21B27,2013-09-07 22:45:00,
2013-09-07 15:50:00,98.7,64.5,29.73,SW,222,2.0,2.0,33,0.00,,,0.00,WeatherCatV1.21B27,2013-09-07 22:50:00,
2013-09-07 15:55:00,98.5,61.7,29.73,SW,223,0.0,1.0,30,0.00,,,0.00,WeatherCatV1.21B27,2013-09-07 22:55:00,
2013-09-07 16:00:00,98.2,59.4,29.73,SW,223,0.0,1.0,28,0.00,,,0.00,WeatherCatV1.21B27,2013-09-07 23:00:00,
2013-09-07 16:05:00,98.5,62.6,29.73,WSW,238,1.0,3.0,31,0.00,,,0.00,WeatherCatV1.21B27,2013-09-07 23:05:00,
2013-09-07 16:10:00,98.7,62.8,29.72,West,275,0.0,2.0,31,0.00,,,0.00,WeatherCatV1.21B27,2013-09-07 23:10:00,
2013-09-07 16:15:00,98.9,64.7,29.72,West,277,0.0,2.0,33,0.00,,,0.00,WeatherCatV1.21B27,2013-09-07 23:15:00,
2013-09-07 16:21:00,99.0,64.8,29.72,West,277,0.0,1.0,33,0.00,,,0.00,WeatherCatV1.21B27,2013-09-07 23:21:00,
2013-09-07 16:26:00,98.8,62.8,29.72,NNW,329,2.0,2.0,31,0.00,,,0.00,WeatherCatV1.21B27,2013-09-07 23:26:00,
2013-09-07 16:31:00,98.6,67.0,29.71,North,355,0.0,3.0,36,0.00,,,0.00,WeatherCatV1.21B27,2013-09-07 23:31:00,
2013-09-07 16:36:00,98.4,64.3,29.71,NNW,338,0.0,1.0,33,0.00,,,0.00,WeatherCatV1.21B27,2013-09-07 23:36:00,
2013-09-07 16:41:00,98.7,70.8,29.72,NNW,338,0.0,0.0,41,0.00,,,0.00,WeatherCatV1.21B27,2013-09-07 23:41:00,
2013-09-07 16:46:00,98.7,63.7,29.71,NNW,344,0.0,0.0,32,0.00,,,0.00,WeatherCatV1.21B27,2013-09-07 23:46:00,
2013-09-07 16:51:00,98.9,62.9,29.71,NNW,344,0.0,2.0,31,0.00,,,0.00,WeatherCatV1.21B27,2013-09-07 23:51:00,
2013-09-07 16:56:00,98.9,63.8,29.71,NW,325,0.0,1.0,32,0.00,,,0.00,WeatherCatV1.21B27,2013-09-07 23:56:00,
2013-09-07 17:01:00,98.9,63.8,29.71,NW,323,0.0,1.0,32,0.00,,,0.00,WeatherCatV1.21B27,2013-09-08 00:01:00,
2013-09-07 17:06:00,98.8,61.9,29.71,NW,324,0.0,0.0,30,0.00,,,0.00,WeatherCatV1.21B27,2013-09-08 00:06:00,
2013-09-07 17:11:00,98.8,63.7,29.71,NW,324,0.0,2.0,32,0.00,,,0.00,WeatherCatV1.21B27,2013-09-08 00:11:00,
2013-09-07 17:16:00,98.6,61.7,29.71,NNW,327,0.0,0.0,30,0.00,,,0.00,WeatherCatV1.21B27,2013-09-08 00:16:00,
2013-09-07 17:21:00,98.6,62.7,29.71,NW,326,0.0,1.0,31,0.00,,,0.00,WeatherCatV1.21B27,2013-09-08 00:21:00,
2013-09-07 17:26:00,98.6,62.7,29.71,NNW,327,0.0,0.0,31,0.00,,,0.00,WeatherCatV1.21B27,2013-09-08 00:26:00,
2013-09-07 17:31:00,98.5,60.7,29.70,NNW,327,1.0,1.0,29,0.00,,,0.00,WeatherCatV1.21B27,2013-09-08 00:31:00,
2013-09-07 17:36:00,98.3,60.5,29.70,NW,326,0.0,2.0,29,0.00,,,0.00,WeatherCatV1.21B27,2013-09-08 00:36:00,
2013-09-07 17:41:00,98.2,61.4,29.70,NNW,327,0.0,0.0,30,0.00,,,0.00,WeatherCatV1.21B27,2013-09-08 00:41:00,
2013-09-07 17:46:00,98.1,62.2,29.70,NNW,327,0.0,1.0,31,0.00,,,0.00,WeatherCatV1.21B27,2013-09-08 00:46:00,
2013-09-07 17:51:00,98.0,60.3,29.70,NW,326,0.0,1.0,29,0.00,,,0.00,WeatherCatV1.21B27,2013-09-08 00:51:00,
2013-09-07 17:56:00,97.8,62.0,29.70,NNW,327,0.0,1.0,31,0.00,,,0.00,WeatherCatV1.21B27,2013-09-08 00:56:00,
2013-09-07 18:01:00,97.8,61.0,29.70,NNW,327,0.0,1.0,30,0.00,,,0.00,WeatherCatV1.21B27,2013-09-08 01:01:00,
2013-09-07 18:06:00,97.7,61.0,29.70,NNW,327,0.0,0.0,30,0.00,,,0.00,WeatherCatV1.21B27,2013-09-08 01:06:00,
2013-09-07 18:11:00,97.6,61.8,29.70,NW,326,0.0,0.0,31,0.00,,,0.00,WeatherCatV1.21B27,2013-09-08 01:11:00,
2013-09-07 18:16:00,97.5,60.8,29.70,NW,326,0.0,0.0,30,0.00,,,0.00,WeatherCatV1.21B27,2013-09-08 01:16:00,
2013-09-07 18:21:00,97.2,63.2,29.70,NNW,327,0.0,0.0,33,0.00,,,0.00,WeatherCatV1.21B27,2013-09-08 01:21:00,
2013-09-07 18:26:00,96.7,64.5,29.70,NW,326,0.0,0.0,35,0.00,,,0.00,WeatherCatV1.21B27,2013-09-08 01:26:00,
2013-09-07 18:31:00,96.4,65.8,29.70,NNW,327,0.0,0.0,37,0.00,,,0.00,WeatherCatV1.21B27,2013-09-08 01:31:00,
2013-09-07 18:36:00,95.9,64.6,29.70,NNW,327,0.0,0.0,36,0.00,,,0.00,WeatherCatV1.21B27,2013-09-08 01:36:00,
2013-09-07 18:41:00,95.3,65.6,29.70,NNW,327,0.0,0.0,38,0.00,,,0.00,WeatherCatV1.21B27,2013-09-08 01:41:00,
2013-09-07 18:46:00,94.7,65.8,29.70,NW,326,0.0,0.0,39,0.00,,,0.00,WeatherCatV1.21B27,2013-09-08 01:46:00,
2013-09-07 18:51:00,94.0,65.9,29.70,NNW,327,0.0,0.0,40,0.00,,,0.00,WeatherCatV1.21B27,2013-09-08 01:51:00,
2013-09-07 18:56:00,93.0,66.5,29.70,NNW,327,0.0,0.0,42,0.00,,,0.00,WeatherCatV1.21B27,2013-09-08 01:56:00,
2013-09-07 19:01:00,91.5,67.8,29.70,NNW,327,0.0,0.0,46,0.00,,,0.00,WeatherCatV1.21B27,2013-09-08 02:01:00,
2013-09-07 19:06:00,90.4,67.4,29.70,NNW,327,0.0,0.0,47,0.00,,,0.00,WeatherCatV1.21B27,2013-09-08 02:06:00,
2013-09-07 19:11:00,89.3,67.6,29.70,NW,326,0.0,0.0,49,0.00,,,0.00,WeatherCatV1.21B27,2013-09-08 02:11:00,
2013-09-07 19:16:00,88.7,67.6,29.70,NNW,327,0.0,0.0,50,0.00,,,0.00,WeatherCatV1.21B27,2013-09-08 02:16:00,
2013-09-07 19:21:00,87.4,67.6,29.70,NNW,327,0.0,0.0,52,0.00,,,0.00,WeatherCatV1.21B27,2013-09-08 02:21:00,
2013-09-07 19:26:00,86.2,67.0,29.70,NW,326,0.0,0.0,53,0.00,,,0.00,WeatherCatV1.21B27,2013-09-08 02:26:00,
2013-09-07 19:31:00,85.1,67.1,29.70,NNW,327,0.0,0.0,55,0.00,,,0.00,WeatherCatV1.21B27,2013-09-08 02:31:00,
2013-09-07 19:36:00,84.1,66.7,29.71,NNW,327,0.0,0.0,56,0.00,,,0.00,WeatherCatV1.21B27,2013-09-08 02:36:00,
2013-09-07 19:41:00,83.1,66.3,29.71,NW,326,0.0,0.0,57,0.00,,,0.00,WeatherCatV1.21B27,2013-09-08 02:41:00,
2013-09-07 19:46:00,82.2,65.4,29.71,NNW,327,0.0,0.0,57,0.00,,,0.00,WeatherCatV1.21B27,2013-09-08 02:46:00,
2013-09-07 19:51:00,81.4,65.7,29.71,NNW,327,0.0,0.0,59,0.00,,,0.00,WeatherCatV1.21B27,2013-09-08 02:51:00,
2013-09-07 19:56:00,80.9,65.2,29.71,NW,326,0.0,0.0,59,0.00,,,0.00,WeatherCatV1.21B27,2013-09-08 02:56:00,
2013-09-07 20:01:00,80.5,65.8,29.71,NW,326,0.0,0.0,61,0.00,,,0.00,WeatherCatV1.21B27,2013-09-08 03:01:00,
2013-09-07 20:06:00,80.3,65.6,29.71,NNW,327,0.0,0.0,61,0.00,,,0.00,WeatherCatV1.21B27,2013-09-08 03:06:00,
2013-09-07 20:11:00,80.0,65.8,29.72,NNW,327,0.0,0.0,62,0.00,,,0.00,WeatherCatV1.21B27,2013-09-08 03:11:00,
2013-09-07 20:16:00,79.5,64.8,29.72,NW,326,0.0,0.0,61,0.00,,,0.00,WeatherCatV1.21B27,2013-09-08 03:16:00,
2013-09-07 20:21:00,79.1,65.4,29.72,NW,326,0.0,0.0,63,0.00,,,0.00,WeatherCatV1.21B27,2013-09-08 03:21:00,
2013-09-07 20:26:00,78.7,65.0,29.72,NNW,327,0.0,0.0,63,0.00,,,0.00,WeatherCatV1.21B27,2013-09-08 03:26:00,
2013-09-07 20:31:00,78.2,65.4,29.72,NW,326,0.0,0.0,65,0.00,,,0.00,WeatherCatV1.21B27,2013-09-08 03:31:00,
2013-09-07 20:36:00,77.8,65.9,29.72,NW,326,0.0,0.0,67,0.00,,,0.00,WeatherCatV1.21B27,2013-09-08 03:36:00,
2013-09-07 20:41:00,77.2,66.2,29.72,NNW,327,0.0,0.0,69,0.00,,,0.00,WeatherCatV1.21B27,2013-09-08 03:41:00,
2013-09-07 20:46:00,76.8,65.8,29.72,NNW,327,0.0,0.0,69,0.00,,,0.00,WeatherCatV1.21B27,2013-09-08 03:46:00,
2013-09-07 20:51:00,76.4,65.5,29.73,NNW,327,0.0,0.0,69,0.00,,,0.00,WeatherCatV1.21B27,2013-09-08 03:51:00,
2013-09-07 20:56:00,76.1,65.6,29.73,NW,326,0.0,0.0,70,0.00,,,0.00,WeatherCatV1.21B27,2013-09-08 03:56:00,
2013-09-07 21:01:00,75.8,65.3,29.73,NW,326,0.0,0.0,70,0.00,,,0.00,WeatherCatV1.21B27,2013-09-08 04:01:00,
2013-09-07 21:02:00,75.7,65.2,29.73,NNW,327,0.0,0.0,70,0.00,,,0.00,WeatherCatV1.21B27,2013-09-08 04:02:00,
2013-09-07 21:07:00,75.3,65.2,29.73,NNW,327,0.0,0.0,71,0.00,,,0.00,WeatherCatV1.21B27,2013-09-08 04:07:00,
2013-09-07 21:12:00,74.9,65.2,29.73,NNW,327,0.0,0.0,72,0.00,,,0.00,WeatherCatV1.21B27,2013-09-08 04:12:00,
2013-09-07 21:17:00,74.5,64.9,29.73,NW,326,0.0,0.0,72,0.00,,,0.00,WeatherCatV1.21B27,2013-09-08 04:17:00,
2013-09-07 21:22:00,74.3,65.1,29.73,NW,326,0.0,0.0,73,0.00,,,0.00,WeatherCatV1.21B27,2013-09-08 04:22:00,
2013-09-07 21:27:00,74.1,64.9,29.73,NNW,327,0.0,0.0,73,0.00,,,0.00,WeatherCatV1.21B27,2013-09-08 04:27:00,
2013-09-07 21:32:00,73.8,65.0,29.74,NW,326,0.0,0.0,74,0.00,,,0.00,WeatherCatV1.21B27,2013-09-08 04:32:00,
2013-09-07 21:37:00,73.6,64.8,29.74,NNW,327,0.0,0.0,74,0.00,,,0.00,WeatherCatV1.21B27,2013-09-08 04:37:00,
2013-09-07 21:42:00,73.5,65.1,29.73,NW,326,0.0,0.0,75,0.00,,,0.00,WeatherCatV1.21B27,2013-09-08 04:42:00,
2013-09-07 21:47:00,73.3,64.9,29.74,NNW,327,0.0,0.0,75,0.00,,,0.00,WeatherCatV1.21B27,2013-09-08 04:47:00,
2013-09-07 21:52:00,73.0,64.2,29.74,NW,326,0.0,0.0,74,0.00,,,0.00,WeatherCatV1.21B27,2013-09-08 04:52:00,
2013-09-07 21:57:00,72.9,64.9,29.74,NNW,327,0.0,0.0,76,0.00,,,0.00,WeatherCatV1.21B27,2013-09-08 04:57:00,
2013-09-07 22:02:00,72.7,64.7,29.74,NNW,327,0.0,0.0,76,0.00,,,0.00,WeatherCatV1.21B27,2013-09-08 05:02:00,
2013-09-07 22:07:00,72.6,65.0,29.74,NNW,327,0.0,0.0,77,0.00,,,0.00,WeatherCatV1.21B27,2013-09-08 05:07:00,
2013-09-07 22:12:00,72.4,64.4,29.74,NW,326,0.0,0.0,76,0.00,,,0.00,WeatherCatV1.21B27,2013-09-08 05:12:00,
2013-09-07 22:17:00,72.1,64.1,29.74,NNW,327,0.0,0.0,76,0.00,,,0.00,WeatherCatV1.21B27,2013-09-08 05:17:00,
2013-09-07 22:22:00,72.0,63.6,29.74,NNW,327,0.0,0.0,75,0.00,,,0.00,WeatherCatV1.21B27,2013-09-08 05:22:00,
2013-09-07 22:27:00,71.9,63.5,29.74,NNW,327,0.0,0.0,75,0.00,,,0.00,WeatherCatV1.21B27,2013-09-08 05:27:00,
2013-09-07 22:32:00,71.8,63.0,29.74,NW,326,0.0,0.0,74,0.00,,,0.00,WeatherCatV1.21B27,2013-09-08 05:32:00,
2013-09-07 22:37:00,71.8,62.7,29.74,NW,326,0.0,0.0,73,0.00,,,0.00,WeatherCatV1.21B27,2013-09-08 05:37:00,
2013-09-07 22:42:00,71.7,61.8,29.74,NW,326,0.0,1.0,71,0.00,,,0.00,WeatherCatV1.21B27,2013-09-08 05:42:00,
2013-09-07 22:47:00,71.9,62.0,29.74,NNW,327,0.0,1.0,71,0.00,,,0.00,WeatherCatV1.21B27,2013-09-08 05:47:00,
2013-09-07 22:52:00,72.0,61.7,29.74,NW,326,0.0,0.0,70,0.00,,,0.00,WeatherCatV1.21B27,2013-09-08 05:52:00,
2013-09-07 22:57:00,72.3,62.0,29.74,NNW,327,0.0,0.0,70,0.00,,,0.00,WeatherCatV1.21B27,2013-09-08 05:57:00,
2013-09-07 23:02:00,72.4,62.0,29.74,NNW,327,0.0,0.0,70,0.00,,,0.00,WeatherCatV1.21B27,2013-09-08 06:02:00,
2013-09-07 23:07:00,72.5,62.1,29.74,NW,326,0.0,0.0,70,0.00,,,0.00,WeatherCatV1.21B27,2013-09-08 06:07:00,
2013-09-07 23:12:00,72.5,61.7,29.74,NW,326,0.0,0.0,69,0.00,,,0.00,WeatherCatV1.21B27,2013-09-08 06:12:00,
2013-09-07 23:17:00,72.5,61.7,29.74,NNW,327,0.0,0.0,69,0.00,,,0.00,WeatherCatV1.21B27,2013-09-08 06:17:00,
2013-09-07 23:22:00,72.4,61.6,29.74,NW,326,0.0,0.0,69,0.00,,,0.00,WeatherCatV1.21B27,2013-09-08 06:22:00,
2013-09-07 23:27:00,72.3,61.5,29.74,NW,326,0.0,0.0,69,0.00,,,0.00,WeatherCatV1.21B27,2013-09-08 06:27:00,
2013-09-07 23:32:00,72.2,61.5,29.74,NW,326,0.0,0.0,69,0.00,,,0.00,WeatherCatV1.21B27,2013-09-08 06:32:00,
2013-09-07 23:37:00,72.0,61.3,29.74,NNW,327,0.0,0.0,69,0.00,,,0.00,WeatherCatV1.21B27,2013-09-08 06:37:00,
2013-09-07 23:42:00,71.8,61.5,29.75,NNW,327,0.0,0.0,70,0.00,,,0.00,WeatherCatV1.21B27,2013-09-08 06:42:00,
2013-09-07 23:47:00,71.6,61.3,29.75,NNW,327,0.0,0.0,70,0.00,,,0.00,WeatherCatV1.21B27,2013-09-08 06:47:00,
2013-09-07 23:52:00,71.3,61.0,29.75,NW,326,0.0,0.0,70,0.00,,,0.00,WeatherCatV1.21B27,2013-09-08 06:52:00,
2013-09-07 23:57:00,71.2,60.9,29.75,NW,326,0.0,0.0,70,0.00,,,0.00,WeatherCatV1.21B27,2013-09-08 06:57:00,